{"data":{"norad_id":59754,"intl_designator":"2024-091B","name":"STARLINK-11118 [DTC]","alt_names":[],"object_type":"PAYLOAD","status":"ACTIVE","operator":null,"country":"US","launch_date":"2024-05-14","launch_site_code":"AFWTR","launch_vehicle":null,"mission":null,"orbit_class":"UNKNOWN","rcs_meters":null,"size_class":null,"mass_kg":null,"dimensions":null,"purposes":["comms"],"wikipedia_slug":null,"has_3d_model":false,"image_url":null,"decayed_at":null,"tle_current":{"epoch":"2026-09-21T10:33:20.355552Z","epoch_age_seconds":90046,"freshness":"FRESH","line1":"1 59754U 24091B   26264.43981893 -.00000433  00000+0  12882-5 0  9997","line2":"2 59754  53.1592 321.6177 0001233  68.4418 291.6731 15.69709964136256","mean_motion":15.69709964,"eccentricity":0.0001233,"inclination_deg":53.1592,"raan_deg":321.6177,"arg_perigee_deg":68.4418,"mean_anomaly_deg":291.6731,"bstar":1.2882e-6,"rev_number":13625,"period_min":91.736692320569,"perigee_km":358.89607482487,"apogee_km":360.55763205113,"semimajor_km":6737.863853438,"source":"CELESTRAK","updated_at":"2026-09-22T09:00:49.066817Z"}}}